Redwood City, CA (94065)

7:11 PM PDT on August 29, 2015 (GMT -0700)
Belmont - Island Park | | Change Station
CLOSE
Current Station
Personal Weather Station
Location: Belmont, CA
Elevation: 5 ft
Nearby Weather Stations

Elev 5 ft 37.53 °N, 122.27 °W | Updated 6 seconds ago

Scattered Clouds
Scattered Clouds
74.5 °F
Feels Like 77 °F
N
3.1
Wind Variable Wind from NW
Gusts 5.8 mph

Today
High -- | Low -- °F
--% Chance of Precip.
Yesterday
High -- | Low -- °F
Precip. -- in
6:36 AM 7:42 PM
Full, 100% visible
Pressure 30.00 in
Visibility -9999.0 miles
Clouds Few 1000 ft
Scattered Clouds 20000 ft
Heat Index 77 °F
Dew Point 48 °F
Humidity 39%
Rainfall 0.00 in
Snow Depth Not available.
UV 0 out of 12
Pollen 6.20 out of 12
Air Quality Not available.
Flu Activity Not available.
METAR KSQL 300150Z 25007KT 10M FEW010 SCT200 23/13 A3000
Pressure 30.00 in
Visibility -9999.0 miles
Clouds Few 1000 ft
Scattered Clouds 20000 ft
Heat Index 77 °F
Dew Point 48 °F
Humidity 39%
Rainfall 0.00 in
Snow Depth Not available.
UV 0 out of 12
Pollen 6.20 out of 12
Air Quality Not available.
Flu Activity Not available.
METAR KSQL 300150Z 25007KT 10M FEW010 SCT200 23/13 A3000

10-Day Weather Forecast

×

Almanac

Astronomy

Aug. 29, 2015 Rise Set
Actual Time
Civil Twilight
Nautical Twilight
Astronomical Twilight
Moon
Length of Visible Light
Length of Day
Tomorrow will be .
, % of the Moon is Illuminated

Today's Extremes

State Highs State Lows

Community

WunderPhotos

Upload Photos

1,850,849 photos uploaded!

WunderBlogs® & News

Nearby

Air Quality

  Air Quality AQ Index Pollutant
Not available.

Snow Depth

Station Depth Elevation

Earthquake Activity

City Distance Mag. Time & Date
Minimum magnitude displayed is 2.5.

Coastal Water Temperatures

Place Temperature

Stations

Nearby Weather Stations

Station Location Temp. Windchill Dew Point Humidity Wind Precip. Elev Updated Type